www.pogodaiklimat.ru

Погода и климат >> Архив погоды >> Россия >> Якутия >> Усть-Чаркы


ПОГОДА в Усть-Чарках

  • Прогноз погоды в Усть-Чарках
  • Монитор погоды в Усть-Чарках
  • Климат города

АРХИВ ПОГОДЫ в Усть-Чарках

Время (UTC), дата Ветер
(напр.,м/с)
 
Видим.   Явления Облачность Т
(С)
Тd
(С)
f
(%)
Тe
(С)
Тes
(С)
Комфортность P
(гПа)
Po
(гПа)
Тmin
(С)
Tmax
(С)
R
(мм)
R24
(мм)
S
(см)
06 12.08 штиль 0 50 км 8/6 600 м
[Cb cap Ac trans]
+20.2 +16.6 80 +23 +25 комфорт 1007.4 976.0
09 12.08 З 1 50 км 8/5 600 м
[Cb cap Ac trans]
+21.2 +15.3 69 +24 +25 комфорт 1006.8 975.5 +21.5 0.7
12 12.08 штиль 0 50 км 8/8 1000 м
[Sc]
+18.2 +15.1 82 +18 +18 1007.3 975.7
15 12.08 штиль 0 50 км 10/10 1000 м
[Sc]
+14.2 +13.5 96 +14 +14 1007.8 975.8
18 12.08 штиль 0 10 км ливневой дождь 10/10 600 м
[Cb cap]
+13.3 +12.9 97 +13 +13 1008.4 976.3
21 12.08 штиль 0 10 км ливневой дождь 10/10 300 м
[Cb cap]
+17.0 +16.3 96 +17 +17 1008.6 976.9 +13.3 12
00 13.08 штиль 0 50 км {ливн. осадки} 9/9 300 м
[Cb cap]
+18.1 +17.3 95 +18 +19 1010.4 978.7
03 13.08 СЗ 3 50 км {ливн. осадки} 8/8 1000 м
[Cu med, cong]
+22.7 +14.0 58 +26 +27 жарко 1011.2 980.1
06 13.08 СЗ 3 50 км {ливн. осадки} 4/4 1000 м
[Cu med, cong]
+23.2 +14.0 56 +27 +29 душно 1012.3 981.1
09 13.08 СЗ 1 50 км 5/1 1000 м
[Cu med, cong Ac trans Ci ing]
+23.5 +11.7 47 +25 +26 комфорт 1013.6 982.4 +25.0 3
12 13.08 ЮВ 1 50 км 4/0
[Ac lent Ci fib]
+14.8 +14.4 97 +15 +15 1016.5 984.3
15 13.08 штиль 0 50 км ясно +8.0 +7.4 96 +7 +7 1018.6 985.5
18 13.08 ЮВ 1 50 км ясно +4.5 +3.8 95 +3 +3 1019.9 986.1
21 13.08 штиль 0 50 км ясно +9.6 +9.6 100 +9 +10 1020.9 987.8 +3.7
00 14.08 штиль 0 50 км ясно +16.0 +10.3 69 +16 +23 1019.9 987.6
03 14.08 В 1 50 км ясно +23.3 +10.9 46 +26 +35 жарко 1017.2 985.9
06 14.08 штиль 0 50 км ясно +27.1 +7.8 29 +27 +34 жарко 1015.7 984.7
09 14.08 штиль 0 50 км ясно +26.7 +6.9 28 +26 +27 жарко 1014.6 983.6 +28.1
12 14.08 штиль 0 50 км ясно +14.6 +10.2 75 +14 +14 1015.8 983.5
15 14.08 штиль 0 50 км ясно +8.2 +8.2 100 +7 +7 1016.7 983.6
18 14.08 штиль 0 50 км ясно +3.7 +3.5 99 +2 +2 1009.7 984.3
21 14.08 штиль 0 50 км ясно +7.5 +6.6 94 +6 +8 1017.4 984.3 +3.6
00 15.08 штиль 0 50 км ясно +18.1 +10.6 62 +18 +25 1015.7 983.8
03 15.08 В 2 50 км ясно +26.1 +11.8 41 +27 +35 жарко 1012.2 981.3
06 15.08 СВ 1 50 км 6/0
[Ci fib]
+30.3 +12.8 34 +31 +36 жарко 1010.7 980.3
09 15.08 В 2 50 км 8/0
[Ci]
+28.5 +13.0 38 +30 +31 жарко 1009.5 978.9 +32.0
12 15.08 штиль 0 50 км 9/6 1000 м
[Sc diur, vesp Ac trans Ci fib]
+15.7 +13.0 84 +15 +15 1010.8 978.8
15 15.08 штиль 0 50 км 8/6 1000 м
[Sc diur, vesp Ci fib]
+10.1 +8.9 92 +9 +9 1011.6 978.9
18 15.08 В 1 50 км 6/6 1000 м
[Sc]
+10.8 +9.5 92 +10 +10 1011.8 979.2
21 15.08 штиль 0 50 км 8/3 600 м
[Cb calv Ac trans]
+14.0 +11.8 87 +14 +14 1011.7 979.6 +10.1
00 16.08 штиль 0 50 км 9/9 600 м
[Cb cap]
+22.3 +11.4 50 +24 +25 комфорт 1010.3 979.0
03 16.08 ЮВ 3 50 км 9/6 600 м
[Cb calv Ac cast]
+25.9 +11.3 40 +27 +28 жарко 1008.8 977.9
06 16.08 ЮЗ 2 50 км 9/9 600 м
[Cb calv]
+28.1 +11.4 35 +29 +29 жарко 1007.6 977.1
09 16.08 СЗ 3 50 км 10/10 600 м
[Cb calv]
+23.6 +13.3 52 +26 +26 жарко 1007.3 976.2 +28.4
12 16.08 В 1 10 км слабый снег {ливн. осадки} 10/10 600 м
[Cb cap]
+18.2 +17.5 96 +20 +20 1008.9 977.3
15 16.08 штиль 0 50 км в посл. час ливневой дождь 10/10 600 м
[Cb cap]
+17.4 +16.7 96 +17 +17 1009.0 977.4
18 16.08 штиль 0 50 км {ливн. осадки} 10/10 600 м
[Cb cap]
+13.2 +10.7 85 +13 +13 1012.5 980.3
21 16.08 ЮВ 2 50 км 10/10 300 м
[Cb cap]
+11.1 +10.5 96 +10 +10 1014.8 982.1 +11.1 9
00 17.08 СЗ 1 50 км 10/5 1000 м
[Cu Sc Ci ing]
+11.5 +6.9 73 +11 +14 1015.4 982.8
03 17.08 СЗ 4 50 км 10/1 1000 м
[Sc Ac trans Cc]
+12.8 +6.1 64 +11 +13 1015.1 982.6
06 17.08 З 2 50 км 10/3 1000 м
[Sc Ac trans Ci fib]
+13.8 +7.2 64 +13 +15 1014.6 982.3
09 17.08 СЗ 2 50 км 10/10 600 м
[Cb cap]
+11.9 +7.4 74 +11 +11 1014.1 981.5 +23.6
12 17.08 штиль 0 50 км 10/6 1000 м
[Cb cap Ac trans]
+10.2 +4.1 66 +10 +10 1013.9 981.1
15 17.08 З 2 50 км 10/10 1000 м
[Sc]
+10.2 +7.5 83 +9 +9 1013.0 980.3
18 17.08 штиль 0 50 км 4/4 1000 м
[Sc]
+2.8 +1.9 94 +2 +2 1014.3 980.5
21 17.08 штиль 0 200 м туман ?/? +5.1 +5.1 100 +4 +4 1013.7 980.4 +1.4
00 18.08 штиль 0 50 км {туман} ясно +9.6 +7.1 84 +9 +16 1013.1 983.4
03 18.08 СЗ 3 50 км 8/8 1000 м
[Sc]
+16.1 +1.0 36 +16 +17 1011.8 979.8
06 18.08 СВ 2 50 км 5/3 1000 м
[Cu med, cong Ci fib]
+16.9 +0.7 33 +17 +20 1011.2 979.3
09 18.08 штиль 0 50 км 10/3 1000 м
[Sc Ac lent Cs]
+16.0 +2.2 39 +16 +16 1010.6 978.6 +17.8
12 18.08 штиль 0 50 км 10/0
[Ac trans Cc]
+8.4 +5.3 81 +8 +8 1011.2 978.3
15 18.08 штиль 0 50 км 10/0
[Ac trans Ci fib]
+3.5 +2.8 95 +2 +2 1011.4 977.9
18 18.08 штиль 0 50 км 10/3 1000 м
[Sc Ac trans Ci fib]
+1.7 +1.4 98 0 0 1011.3 977.5
21 18.08 штиль 0 50 км 10/3 1000 м
[Sc Ac As]
+4.1 +3.1 93 +3 +3 1010.0 976.7 +1.1
00 19.08 штиль 0 50 км 10/1 1000 м
[Sc Ac As]
+8.5 +8.3 99 +7 +9 1008.8 976.0

 

Местоположение метеостанции Усть-Чаркы (Якутия, Россия): широта 66.80 долгота 136.60 высота над уровнем моря 274 м.

В архиве по умолчанию представлена погода в Усть-Чарках за последнюю неделю. Архивные данные за месяц целиком и за предыдущие месяцы, начиная с января 2011 года, Вы можете получить, выбрав интересующий диапазон дат из раскрывающегося списка и нажав кнопку "Ввод!".

Внимание! Время в таблицах - всемирное. Для получения местного времени необходимо прибавить поправку, которая в Усть-Чарках равна 10 ч.

Смотрите также архив погоды в соседних городах и на ближайших метеорологических станциях:

Погода в Батагае (Якутия, Россия) (128 км)
Погода в Верхоянске (Якутия, Россия) (162 км)
Погода в Иэме (Якутия, Россия) (171 км)
Погода в Екюччю (Якутия, Россия) (219 км)
Погода в Батагай-Алыте (Якутия, Россия) (288 км)
Погода в Усть-Моме (Якутия, Россия) (294 км)
Погода в Депутатском (Якутия, Россия) (316 км)
Погода в Томпо (Якутия, Россия) (319 км)
Погода в Себян-Кюеле (Якутия, Россия) (341 км)
Погода в Усть-Куйге (Якутия, Россия) (358 км)

Пояснения к столбцам:

Ветер - указаны скорость ветра в м/с - средняя за 10 мин, порывы в срок и между сроками (в фигурных скобках) и направление, откуда дует ветер: С - северный, СВ - северо-восточный, В - восточный, ЮВ - юго-восточный, Ю - южный, ЮЗ - юго-западный, З - западный, СЗ - северо-западный.
Видимость - горизонтальная дальность видимости в метрах или километрах. При видимости от 1 до 10 км при отсутствии осадков обычно наблюдается дымка, при ухудшении видимости до 1 км и менее - туман. В сухую погоду видимость может ухудшаться дымом, пылью или мглою.
Явления - указаны атмосферные явления, наблюдавшиеся в срок или в последний час перед сроком; фигурными скобками обозначены явления, наблюдавшиеся между сроками (за 1-3 часа до срока); квадратными скобками обозначены град или гололедные отложения с указанием их диаметра в мм.
Облачность - указаны через наклонную черту общая и нижняя облачность в баллах и высота нижней границы облаков в метрах; квадратными скобками обозначены формы облаков: Ci - перистые, Cs - перисто-слоистые, Cc - перисто-кучевые, Ac - высококучевые, As - высокослоистые, Sc - слоисто-кучевые, Ns - слоисто-дождевые, Cu - кучевые, Cb - кучево-дождевые. Подробнее классификацию облаков см. в Атласе облаков (PDF).
T - Температура воздуха - температура, измеренная на высоте 2 м над землей.
Td - Температура точки росы - температура, при понижении до которой содержащийся в воздухе водяной пар достигнет насыщения.
f - Относительная влажность воздуха - влажноcть воздуха, измеренная на высоте 2 м над землей.
Te - Эффективная температура - температура, которую ощущает одетый по сезону человек в тени. Характеристика душности погоды. При расчете учитывается влияние влажности воздуха и скорости ветра на теплоощущения человека.
Tes - Эффективная температура на солнце - температура, которую ощущает человек, с поправкой на солнечный нагрев. Характеристика знойности погоды. Зависит от высоты солнца над горизонтом, облачности и скорости ветра. Ночью, в пасмурную погоду, а также при ветре 12 м/с и более поправка равна нулю.
P - Атмосферное давление - приведенное к уровню моря атмосферное давление.
Po - Атмосферное давление - измеренное на уровне метеостанции атмосферное давление.
Tmin - Минимальная температура - минимум температуры воздуха на высоте 2 м над землей.
Tmax - Максимальная температура - максимум температуры воздуха на высоте 2 м над землей.
R - Количество осадков - Количество выпавших осадков за период времени, мм. При наведении курсора мыши на число - период времени, за который выпало указанное количество осадков.
R24 - Количество осадков - Количество выпавших осадков за 24 часа, мм.
S - Снежный покров - Высота снежного покрова, см. При наведении курсора мыши на число - состояние снежного покрова и степень покрытия местности в баллах.